TimeEDT,TemperatureF,Dew PointF,Humidity,Sea Level PressureIn,VisibilityMPH,Wind Direction,Wind SpeedMPH,Gust SpeedMPH,PrecipitationIn,Events,Conditions,WindDirDegrees,DateUTC
12:56 AM,10.4,8.6,92,-9999,120.0,East,16.1,-,N/A,,Partly Cloudy,100,2013-03-25 04:56:00
1:49 AM,12.2,12.2,100,-9999,0.1,ESE,15.0,-,N/A,Fog,Light Freezing Fog,110,2013-03-25 05:49:00
2:49 AM,10.4,10.4,100,-9999,0.1,ESE,10.4,-,N/A,Fog,Light Freezing Fog,120,2013-03-25 06:49:00
3:54 AM,10.4,8.6,92,-9999,110.0,SSE,4.6,-,N/A,Fog,Patches of Fog,150,2013-03-25 07:54:00
4:51 AM,10.4,6.8,85,-9999,120.0,SE,4.6,-,N/A,,Scattered Clouds,130,2013-03-25 08:51:00
5:55 AM,12.2,6.8,79,-9999,120.0,East,4.6,-,N/A,,Partly Cloudy,100,2013-03-25 09:55:00
6:54 AM,12.2,12.2,100,-9999,0.0,East,5.8,-,N/A,Fog,Light Freezing Fog,100,2013-03-25 10:54:00
7:57 AM,12.2,12.2,100,-9999,120.0,ENE,10.4,-,N/A,,Mostly Cloudy,70,2013-03-25 11:57:00
8:55 AM,12.2,12.2,100,-9999,0.0,East,16.1,-,N/A,Fog,Light Freezing Fog,80,2013-03-25 12:55:00
9:57 AM,14.0,8.6,79,-9999,120.0,East,19.6,-,N/A,Fog,Patches of Fog,80,2013-03-25 13:57:00
10:54 AM,14.0,14.0,100,-9999,0.0,East,18.4,-,N/A,Fog,Light Freezing Fog,90,2013-03-25 14:54:00
11:52 AM,14.0,14.0,100,-9999,0.1,East,21.9,-,N/A,Fog,Light Freezing Fog,90,2013-03-25 15:52:00
12:52 PM,14.0,14.0,100,-9999,0.1,East,21.9,25.3,N/A,Fog,Light Freezing Fog,90,2013-03-25 16:52:00
1:54 PM,14.0,14.0,100,-9999,0.1,East,19.6,-,N/A,Fog,Light Freezing Fog,80,2013-03-25 17:54:00
2:49 PM,14.0,14.0,100,-9999,0.1,East,27.6,-,N/A,Fog,Light Freezing Fog,100,2013-03-25 18:49:00
3:51 PM,14.0,14.0,100,-9999,0.1,East,32.2,-,N/A,Fog-Snow,Light Snow Showers,100,2013-03-25 19:51:00
4:48 PM,14.0,14.0,100,-9999,0.1,East,31.1,-,N/A,Fog,Light Freezing Fog,80,2013-03-25 20:48:00
5:54 PM,14.0,14.0,100,-9999,0.1,ENE,31.1,38.0,N/A,Fog,Light Freezing Fog,70,2013-03-25 21:54:00
6:54 PM,12.2,12.2,100,-9999,0.1,East,34.5,-,N/A,Fog,Light Freezing Fog,80,2013-03-25 22:54:00
7:49 PM,14.0,14.0,100,-9999,0.0,East,32.2,-,N/A,Fog-Snow,Light Snow Showers,80,2013-03-25 23:49:00
8:51 PM,12.2,12.2,100,-9999,0.0,East,29.9,-,N/A,Fog-Snow,Light Snow Showers,80,2013-03-26 00:51:00
9:50 PM,12.2,12.2,100,-9999,0.0,East,26.5,-,N/A,Fog-Snow,Snow Showers,80,2013-03-26 01:50:00
10:48 PM,12.2,12.2,100,-9999,0.0,ENE,27.6,-,N/A,Fog-Snow,Snow Showers,70,2013-03-26 02:48:00
11:51 PM,12.2,12.2,100,-9999,0.0,NE,23.0,-,N/A,Fog-Snow,Light Snow Showers,50,2013-03-26 03:51:00